TimeEDT,TemperatureF,Dew PointF,Humidity,Sea Level PressureIn,VisibilityMPH,Wind Direction,Wind SpeedMPH,Gust SpeedMPH,PrecipitationIn,Events,Conditions,WindDirDegrees,DateUTC
12:51 AM,80.1,72.0,76,30.09,10.0,SSE,9.2,-,N/A,,Clear,150,2013-08-08 04:51:00
1:51 AM,79.0,72.0,79,30.08,10.0,SE,10.4,-,N/A,,Clear,140,2013-08-08 05:51:00
2:51 AM,79.0,72.0,79,30.08,10.0,SE,8.1,-,N/A,,Clear,140,2013-08-08 06:51:00
3:51 AM,79.0,73.0,82,30.08,10.0,SE,8.1,-,N/A,,Partly Cloudy,130,2013-08-08 07:51:00
4:51 AM,79.0,73.0,82,30.07,10.0,SE,6.9,-,N/A,,Mostly Cloudy,140,2013-08-08 08:51:00
5:51 AM,79.0,73.0,82,30.07,10.0,SE,8.1,-,N/A,,Clear,140,2013-08-08 09:51:00
6:51 AM,79.0,73.0,82,30.07,10.0,SE,6.9,-,N/A,,Clear,140,2013-08-08 10:51:00
7:51 AM,82.0,73.0,74,30.08,10.0,SE,8.1,-,N/A,,Clear,140,2013-08-08 11:51:00
8:51 AM,82.0,73.9,76,30.09,10.0,SSE,6.9,-,N/A,,Partly Cloudy,150,2013-08-08 12:51:00
9:51 AM,84.0,75.0,74,30.09,10.0,SSE,8.1,-,N/A,,Clear,150,2013-08-08 13:51:00
10:51 AM,86.0,75.0,70,30.09,10.0,SSE,8.1,-,N/A,,Mostly Cloudy,160,2013-08-08 14:51:00
11:51 AM,87.1,75.0,67,30.09,10.0,South,9.2,-,N/A,,Scattered Clouds,170,2013-08-08 15:51:00
12:51 PM,87.1,75.0,67,30.09,10.0,South,8.1,-,N/A,,Clear,170,2013-08-08 16:51:00
1:51 PM,89.1,75.9,65,30.08,10.0,SSE,9.2,-,N/A,,Clear,160,2013-08-08 17:51:00
2:51 PM,86.0,75.0,70,30.08,10.0,South,6.9,-,N/A,,Clear,170,2013-08-08 18:51:00
3:51 PM,82.0,75.9,82,30.07,10.0,South,5.8,-,0.00,Rain,Light Rain,190,2013-08-08 19:51:00
4:51 PM,87.1,75.9,69,30.05,10.0,South,8.1,-,0.00,,Clear,170,2013-08-08 20:51:00
5:51 PM,84.9,75.9,74,30.05,10.0,South,10.4,-,N/A,,Clear,170,2013-08-08 21:51:00
6:51 PM,82.9,75.9,79,30.05,10.0,South,4.6,-,N/A,,Clear,190,2013-08-08 22:51:00
7:51 PM,82.0,75.9,82,30.05,10.0,SSE,5.8,-,N/A,,Clear,160,2013-08-08 23:51:00
8:51 PM,81.0,77.0,88,30.07,10.0,South,5.8,-,N/A,,Clear,180,2013-08-09 00:51:00
9:51 PM,81.0,77.0,88,30.08,10.0,SSW,4.6,-,N/A,,Clear,200,2013-08-09 01:51:00
10:51 PM,81.0,77.0,88,30.08,10.0,SSW,4.6,-,N/A,,Clear,210,2013-08-09 02:51:00
11:51 PM,81.0,77.0,88,30.07,10.0,SSW,4.6,-,N/A,,Clear,200,2013-08-09 03:51:00